GW5620 Weather Reports


time (UTC)temp
C
wind
direction
speed
KPH
gust
KPH
rain 1hr
cm
rain 24hr
cm
rain mn
cm
humidity
%
barometer
mb
20260509162008 14 178 0.0 0.0 0.00 0.20 0.20 78 1010.3
20260509161507 14 177 0.0 0.0 0.00 0.20 0.20 77 1010.2
20260509161007 14 177 0.0 1.6 0.00 0.20 0.20 77 1010.2
20260509160507 14 180 0.0 3.2 0.00 0.20 0.20 78 1010.3
20260509160007 14 178 0.0 0.0 0.00 0.20 0.20 79 1010.3
20260509155007 14 107 0.0 0.0 0.00 0.20 0.20 80 1010.2
20260509154506 13 90 0.0 1.6 0.00 0.20 0.20 80 1010.2
20260509152507 13 286 0.0 0.0 0.00 0.20 0.20 84 1010.2
20260509152007 13 326 0.0 0.0 0.00 0.20 0.20 86 1010.3
20260509151507 12 335 0.0 0.0 0.00 0.20 0.20 86 1010.3
20260509150506 12 75 0.0 0.0 0.03 0.20 0.20 85 1010.3
20260509150007 12 122 0.0 0.0 0.03 0.20 0.20 85 1010.3
20260509145507 12 138 0.0 0.0 0.08 0.20 0.20 85 1010.4
20260509145007 12 132 0.0 0.0 0.08 0.20 0.20 85 1010.4
20260509144507 12 132 0.0 0.0 0.13 0.20 0.20 85 1010.4
20260509144007 12 132 0.0 0.0 0.13 0.20 0.20 85 1010.4
20260509143507 12 132 0.0 0.0 0.13 0.20 0.20 84 1010.5
20260509143007 12 132 0.0 0.0 0.15 0.20 0.20 84 1010.5
20260509142507 12 132 0.0 0.0 0.15 0.20 0.20 83 1010.4
20260509142006 12 132 0.0 0.0 0.18 0.20 0.20 83 1010.4
20260509141507 12 132 0.0 0.0 0.18 0.20 0.20 82 1010.3
20260509141007 12 132 0.0 0.0 0.18 0.20 0.20 82 1010.2
20260509140507 12 132 0.0 0.0 0.15 0.18 0.18 82 1010.3
20260509140006 12 133 0.0 0.0 0.15 0.18 0.18 80 1010.4
20260509135507 12 133 0.0 0.0 0.13 0.13 0.13 80 1010.4
20260509135006 12 133 0.0 0.0 0.13 0.13 0.13 80 1010.5
20260509134506 12 133 0.0 0.0 0.08 0.08 0.08 79 1010.4
20260509134007 12 133 0.0 0.0 0.08 0.08 0.08 79 1010.4
20260509133506 12 133 0.0 0.0 0.08 0.08 0.08 79 1010.3
20260509133006 12 133 0.0 0.0 0.05 0.05 0.05 78 1010.4
20260509132506 13 138 0.0 0.0 0.05 0.05 0.05 78 1010.4
20260509132006 13 138 0.0 0.0 0.03 0.03 0.03 77 1010.5
20260509130506 13 138 0.0 0.0 0.03 0.03 0.03 77 1010.5
20260509130006 13 137 0.0 0.0 0.03 0.03 0.03 77 1010.5
20260509124507 13 53 0.0 0.0 0.00 0.00 0.00 76 1010.4
20260509124007 13 53 0.0 0.0 0.00 0.00 0.00 78 1010.5
20260509123506 13 53 0.0 0.0 0.00 0.00 0.00 78 1010.5
20260509123006 12 53 0.0 0.0 0.00 0.00 0.00 79 1010.5
20260509122507 12 53 0.0 0.0 0.00 0.00 0.00 79 1010.5
20260509122007 12 53 0.0 0.0 0.00 0.00 0.00 78 1010.5
20260509121506 12 53 0.0 0.0 0.00 0.00 0.00 78 1010.5
20260509121007 12 53 0.0 0.0 0.00 0.00 0.00 79 1010.6
20260509120506 12 53 0.0 0.0 0.00 0.00 0.00 79 1010.7
20260509115506 12 53 0.0 0.0 0.00 0.00 0.00 78 1010.7
20260509115006 12 53 0.0 1.6 0.00 0.00 0.00 78 1010.8
20260509114506 12 53 0.0 0.0 0.00 0.00 0.00 77 1010.6
20260509114006 12 53 0.0 0.0 0.00 0.00 0.00 78 1010.6
20260509113507 11 53 0.0 0.0 0.00 0.00 0.00 78 1010.6
20260509113007 11 53 0.0 0.0 0.00 0.00 0.00 77 1010.5
20260509112506 11 47 0.0 1.6 0.00 0.00 0.00 77 1010.5
20260509111506 11 19 0.0 0.0 0.00 0.00 0.00 77 1010.4
20260509111006 11 19 0.0 0.0 0.00 0.00 0.00 76 1010.4
20260509110507 11 18 0.0 0.0 0.00 0.00 0.00 76 1010.4
20260509105506 11 18 0.0 0.0 0.00 0.00 0.00 75 1010.3
20260509105007 11 18 0.0 0.0 0.00 0.00 0.00 75 1010.2
20260509104506 11 18 0.0 0.0 0.00 0.00 0.00 76 1010.1
20260509104006 11 18 0.0 0.0 0.00 0.00 0.00 77 1010.0
20260509103506 11 18 0.0 0.0 0.00 0.00 0.00 77 1009.9
20260509103006 11 18 0.0 0.0 0.00 0.00 0.00 77 1009.8
20260509102005 11 19 0.0 0.0 0.00 0.00 0.00 77 1009.7
20260509100006 11 76 0.0 0.0 0.00 0.00 0.00 77 1009.3
20260509095505 11 76 0.0 0.0 0.00 0.00 0.00 77 1009.3
20260509095006 11 76 0.0 0.0 0.00 0.00 0.00 77 1009.4
20260509094506 11 76 0.0 0.0 0.00 0.00 0.00 77 1009.3
20260509093506 11 77 0.0 0.0 0.00 0.00 0.00 76 1009.4
20260509093006 11 77 0.0 0.0 0.00 0.00 0.00 76 1009.5
20260509092505 11 77 0.0 0.0 0.00 0.00 0.00 76 1009.4
20260509092006 11 77 0.0 0.0 0.00 0.00 0.00 76 1009.4
20260509091506 11 77 0.0 0.0 0.00 0.00 0.00 76 1009.4
20260509091006 11 77 0.0 0.0 0.00 0.00 0.00 75 1009.4
20260509090505 11 77 0.0 0.0 0.00 0.00 0.00 75 1009.4
20260509090005 11 77 0.0 0.0 0.00 0.00 0.00 75 1009.5
20260509085506 11 77 0.0 0.0 0.00 0.00 0.00 74 1009.5
20260509085005 11 77 0.0 0.0 0.00 0.00 0.00 74 1009.5
20260509084505 11 77 0.0 0.0 0.00 0.00 0.00 74 1009.5
20260509084005 11 77 0.0 0.0 0.00 0.00 0.00 74 1009.6
20260509083506 11 77 0.0 0.0 0.00 0.00 0.00 74 1009.5
20260509083006 11 77 0.0 0.0 0.00 0.00 0.00 74 1009.7
20260509082505 11 77 0.0 0.0 0.00 0.00 0.00 73 1009.6
20260509081506 11 77 0.0 0.0 0.00 0.00 0.00 73 1009.8
20260509081006 11 77 0.0 0.0 0.00 0.00 0.00 72 1009.7
20260509080505 11 77 0.0 0.0 0.00 0.00 0.00 72 1009.7
20260509080005 11 77 0.0 0.0 0.00 0.00 0.00 72 1009.7
20260509075505 11 77 0.0 0.0 0.00 0.00 0.00 71 1009.7
20260509075005 11 77 0.0 0.0 0.00 0.00 0.00 71 1009.7
20260509074505 11 77 0.0 0.0 0.00 0.00 0.00 71 1009.8
20260509074006 11 77 0.0 0.0 0.00 0.00 0.00 71 1009.8
20260509073505 11 77 0.0 0.0 0.00 0.00 0.00 70 1009.6
20260509073005 11 77 0.0 0.0 0.00 0.00 0.00 70 1009.8
20260509072505 11 77 0.0 0.0 0.00 0.00 0.00 70 1009.8
20260509072006 11 77 0.0 0.0 0.00 0.00 0.00 69 1009.8
20260509071505 11 77 0.0 0.0 0.00 0.00 0.00 69 1009.8
20260509071005 12 77 0.0 0.0 0.00 0.00 0.00 69 1009.8
20260509070506 12 77 0.0 0.0 0.00 0.00 0.00 69 1009.8
20260509065005 12 83 0.0 0.0 0.00 0.00 0.00 68 1009.9
20260509064506 12 83 0.0 0.0 0.00 0.00 0.00 67 1009.7
20260509064006 12 83 0.0 0.0 0.00 0.00 0.00 66 1009.8
20260509063005 12 83 0.0 0.0 0.00 0.00 0.00 65 1009.8
20260509062505 12 83 0.0 0.0 0.00 0.00 0.00 65 1009.9
20260509062004 12 83 0.0 0.0 0.00 0.00 0.00 64 1009.8
20260509061506 12 83 0.0 0.0 0.00 0.00 0.00 64 1010.0
20260509061006 12 83 0.0 0.0 0.00 0.00 0.00 64 1010.0
20260509060505 12 83 0.0 0.0 0.00 0.00 0.00 64 1010.1
20260509060005 12 83 0.0 0.0 0.00 0.00 0.00 64 1010.2
20260509055005 12 83 0.0 0.0 0.00 0.00 0.00 64 1010.3
20260509054505 12 90 0.0 0.0 0.00 0.00 0.00 64 1010.2
20260509053005 12 90 0.0 0.0 0.00 0.00 0.00 63 1010.1
20260509052504 12 90 0.0 0.0 0.00 0.00 0.00 64 1010.2
20260509052005 12 90 0.0 0.0 0.00 0.00 0.00 64 1010.1
20260509051505 13 90 0.0 0.0 0.00 0.00 0.00 64 1010.1
20260509051004 13 90 0.0 0.0 0.00 0.00 0.00 64 1010.1
20260509050505 13 90 0.0 0.0 0.00 0.00 0.00 64 1010.1
20260509050004 13 90 0.0 0.0 0.00 0.00 0.00 63 1010.1
20260509045504 13 90 0.0 0.0 0.00 0.00 0.00 63 1010.1
20260509045005 13 90 0.0 0.0 0.00 0.00 0.00 62 1010.1
20260509044504 13 90 0.0 0.0 0.00 0.00 0.00 62 1010.1
20260509044005 13 90 0.0 0.0 0.00 0.00 0.00 62 1010.3
20260509043505 13 90 0.0 0.0 0.00 0.00 0.00 61 1010.4
20260509043005 13 90 0.0 0.0 0.00 0.00 0.00 61 1010.5
20260509041504 13 94 0.0 0.0 0.00 0.00 0.00 59 1010.5
20260509041005 13 94 0.0 0.0 0.00 0.00 0.00 56 1010.6
20260509040504 13 92 0.0 0.0 0.00 0.00 0.00 57 1010.6
20260509040005 13 91 0.0 0.0 0.00 0.00 0.00 60 1010.7
20260509035004 13 89 0.0 0.0 0.00 0.00 0.00 59 1010.7
20260509034504 13 90 0.0 0.0 0.00 0.00 0.00 56 1010.6
20260509034005 13 87 0.0 1.6 0.00 0.00 0.00 57 1010.6
20260509033505 13 90 0.0 0.0 0.00 0.00 0.00 58 1010.6
20260509033005 13 89 0.0 0.0 0.00 0.00 0.00 60 1010.7
20260509032505 13 38 0.0 0.0 0.00 0.00 0.00 61 1010.8
20260509032004 13 38 0.0 0.0 0.00 0.00 0.00 61 1010.9
20260509031505 13 342 0.0 0.0 0.00 0.00 0.00 61 1010.9
20260509031006 13 342 0.0 0.0 0.00 0.00 0.00 62 1010.9
20260509030505 13 341 0.0 0.0 0.00 0.00 0.00 63 1010.9
20260509030004 13 342 0.0 0.0 0.00 0.00 0.00 61 1010.9
20260509025504 13 78 0.0 4.8 0.00 0.00 0.00 61 1010.9
20260509024004 13 329 0.0 0.0 0.00 0.00 0.00 64 1011.1
20260509023504 13 329 0.0 0.0 0.00 0.00 0.00 64 1011.2
20260509023005 13 329 0.0 0.0 0.00 0.00 0.00 64 1011.3
20260509022505 13 329 0.0 0.0 0.00 0.00 0.00 64 1011.2
20260509022004 13 329 0.0 0.0 0.00 0.00 0.00 63 1011.2
20260509021505 13 36 0.0 0.0 0.00 0.00 0.00 62 1011.1
20260509021004 13 28 0.0 0.0 0.00 0.00 0.00 62 1011.1
20260509020504 13 28 0.0 0.0 0.00 0.00 0.00 62 1011.1
20260509020005 13 26 0.0 0.0 0.00 0.00 0.00 62 1011.2
20260509015504 13 355 0.0 0.0 0.00 0.00 0.00 62 1011.1
20260509015004 13 355 0.0 0.0 0.00 0.00 0.00 62 1011.0
20260509014505 13 355 0.0 0.0 0.00 0.00 0.00 61 1011.0
20260509014004 13 355 0.0 0.0 0.00 0.00 0.00 61 1011.0
20260509013505 13 355 0.0 0.0 0.00 0.00 0.00 61 1011.0
20260509012504 14 348 0.0 0.0 0.00 0.00 0.00 59 1011.0
20260509011004 14 337 0.0 0.0 0.00 0.00 0.00 57 1010.9
20260509010504 15 336 0.0 0.0 0.00 0.00 0.00 55 1010.9
20260509010005 15 336 0.0 0.0 0.00 0.00 0.00 55 1010.9
20260509005504 15 336 0.0 0.0 0.00 0.00 0.00 55 1010.8
20260509005004 15 336 0.0 0.0 0.00 0.00 0.00 53 1010.8
20260509004504 15 336 0.0 0.0 0.00 0.00 0.00 52 1010.8
20260509004004 15 336 0.0 0.0 0.00 0.00 0.00 51 1010.9
20260509003504 15 336 0.0 0.0 0.00 0.00 0.00 50 1010.8
20260509003004 16 336 0.0 0.0 0.00 0.00 0.00 49 1010.7
20260509002505 16 336 0.0 0.0 0.00 0.00 0.00 48 1010.6
20260509001503 16 336 0.0 0.0 0.00 0.00 0.00 47 1010.6
20260509001004 16 336 0.0 0.0 0.00 0.00 0.00 46 1010.6
20260509000004 17 336 0.0 0.0 0.00 0.00 0.00 45 1010.5
20260508235503 17 336 0.0 0.0 0.00 0.00 0.00 45 1010.5
20260508235004 17 336 0.0 0.0 0.00 0.00 0.00 45 1010.5
20260508234504 17 336 0.0 0.0 0.00 0.00 0.00 44 1010.4
20260508234009 17 336 0.0 0.0 0.00 0.00 0.00 43 1010.3
20260508233509 17 336 0.0 0.0 0.00 0.00 0.00 43 1010.2
20260508233009 17 327 0.0 4.8 0.00 0.00 0.00 43 1010.3
20260508232508 17 335 0.0 3.2 0.00 0.00 0.00 42 1010.3
20260508232008 17 319 0.0 4.8 0.00 0.00 0.00 42 1010.3
20260508231008 17 281 0.0 0.0 0.00 0.00 0.00 42 1010.4
20260508225509 17 324 0.0 3.2 0.00 0.00 0.00 42 1010.3
20260508225008 17 330 0.0 0.0 0.00 0.00 0.00 41 1010.3
20260508224508 17 301 0.0 1.6 0.00 0.00 0.00 41 1010.4
20260508224008 17 312 0.0 3.2 0.00 0.00 0.00 41 1010.3
20260508223508 17 313 0.0 12.9 0.00 0.00 0.00 41 1010.4
20260508223008 17 294 0.0 14.5 0.00 0.00 0.00 41 1010.4
20260508222508 17 320 0.0 4.8 0.00 0.00 0.00 40 1010.4
20260508222009 17 311 0.0 0.0 0.00 0.00 0.00 40 1010.4
20260508221508 17 316 1.6 11.3 0.00 0.00 0.00 39 1010.3
20260508220509 18 285 0.0 9.7 0.00 0.00 0.00 39 1010.4
20260508220008 18 298 1.6 16.1 0.00 0.00 0.00 39 1010.4
20260508215008 18 258 0.0 14.5 0.00 0.00 0.00 39 1010.4
20260508214508 18 290 0.0 9.7 0.00 0.00 0.00 39 1010.4
20260508212508 18 240 0.0 9.7 0.00 0.00 0.00 39 1010.4
20260508212008 18 283 0.0 14.5 0.00 0.00 0.00 39 1010.3
20260508211508 18 294 1.6 20.9 0.00 0.00 0.00 38 1010.3
20260508210508 18 321 4.8 19.3 0.00 0.00 0.00 38 1010.3
20260508205508 18 285 0.0 3.2 0.00 0.00 0.00 38 1010.3
20260508205008 18 283 0.0 1.6 0.00 0.00 0.00 37 1010.3
20260508204508 18 312 0.0 0.0 0.00 0.00 0.00 37 1010.3
20260508203508 18 312 1.6 9.7 0.00 0.00 0.00 36 1010.5
20260508202508 18 276 0.0 1.6 0.00 0.00 0.00 36 1010.6
20260508202008 18 295 3.2 19.3 0.00 0.00 0.00 35 1010.6
20260508201508 18 279 6.4 22.5 0.00 0.00 0.00 35 1010.6
20260508201008 18 296 3.2 14.5 0.00 0.00 0.00 35 1010.6
20260508200508 18 313 1.6 16.1 0.00 0.00 0.00 35 1010.4
20260508200008 18 286 1.6 14.5 0.00 0.00 0.00 35 1010.5
20260508195508 18 309 3.2 19.3 0.00 0.00 0.00 35 1010.6
20260508195008 18 280 4.8 24.1 0.00 0.00 0.00 34 1010.7
20260508194508 18 299 3.2 16.1 0.00 0.00 0.00 35 1010.7
20260508193509 18 262 1.6 8.0 0.00 0.00 0.00 37 1010.7
20260508192507 18 245 3.2 22.5 0.00 0.00 0.00 35 1010.9
20260508192008 18 263 0.0 9.7 0.00 0.00 0.00 35 1010.8
20260508191508 18 251 0.0 14.5 0.00 0.00 0.00 34 1010.9
20260508191008 18 237 1.6 14.5 0.00 0.00 0.00 34 1011.0
20260508185508 19 247 8.0 22.5 0.00 0.00 0.00 34 1011.1
20260508185008 19 229 8.0 24.1 0.00 0.00 0.00 35 1011.0
20260508184508 19 252 1.6 14.5 0.00 0.00 0.00 37 1011.0
20260508184007 18 258 3.2 27.4 0.00 0.00 0.00 36 1011.0
20260508183008 18 320 1.6 14.5 0.00 0.00 0.00 38 1011.2
20260508182507 18 306 1.6 9.7 0.00 0.00 0.00 36 1011.2
20260508182008 18 325 1.6 14.5 0.00 0.00 0.00 37 1011.3
20260508181507 18 263 3.2 16.1 0.00 0.00 0.00 36 1011.4
20260508181007 18 270 1.6 9.7 0.00 0.00 0.00 38 1011.4
20260508180507 18 282 0.0 9.7 0.00 0.00 0.00 39 1011.6
20260508180007 18 243 1.6 19.3 0.00 0.00 0.00 38 1011.5
20260508175507 18 291 1.6 19.3 0.00 0.00 0.00 38 1011.6
20260508175008 18 242 0.0 16.1 0.00 0.00 0.00 38 1011.8
20260508174507 18 242 3.2 19.3 0.00 0.00 0.00 39 1011.9
20260508174008 18 289 1.6 12.9 0.00 0.00 0.00 38 1011.9
20260508173507 18 293 4.8 22.5 0.00 0.00 0.00 38 1012.0
20260508173008 18 286 0.0 9.7 0.00 0.00 0.00 39 1011.9
20260508172507 18 306 0.0 4.8 0.00 0.00 0.00 39 1011.9
20260508172008 18 286 1.6 11.3 0.00 0.00 0.00 42 1012.0
20260508171507 18 287 1.6 14.5 0.00 0.00 0.00 41 1012.1
20260508171008 18 235 3.2 14.5 0.00 0.00 0.00 39 1012.4
20260508170507 18 266 3.2 19.3 0.00 0.00 0.00 40 1012.5
20260508170007 17 295 0.0 8.0 0.00 0.00 0.00 41 1012.5
20260508165507 17 288 3.2 25.7 0.00 0.00 0.00 39 1012.5
20260508165008 17 316 4.8 19.3 0.00 0.00 0.00 40 1012.6
20260508164007 17 333 3.2 16.1 0.00 0.00 0.00 40 1012.7
20260508163507 17 301 4.8 19.3 0.00 0.00 0.00 41 1012.8
20260508163007 17 266 1.6 19.3 0.00 0.00 0.00 41 1012.9
20260508162507 17 301 0.0 11.3 0.00 0.00 0.00 41 1012.8